NOAA 1 1 04793U 70106A 25351.95816001 -.00000023 00000+0 12236-3 0 9995 2 04793 101.3653 29.3984 0031297 342.4880 83.6243 12.54047582517973 NOAA 2 (ITOS-D) 1 06235U 72082A 25351.91179850 -.00000008 00000+0 23996-3 0 9991 2 06235 102.0191 3.4274 0004182 155.2899 265.8497 12.53208709432249 NOAA 3 1 06920U 73086A 25351.95943574 -.00000020 00000+0 19475-3 0 9994 2 06920 102.2908 359.1529 0006446 98.7214 275.0035 12.40389095359433 NOAA 4 1 07529U 74089A 25351.96412412 -.00000023 00000+0 14834-3 0 9994 2 07529 102.0069 357.8332 0009045 181.6235 210.2221 12.53199490336823 NOAA 5 1 09057U 76077A 25351.88727287 -.00000030 00000+0 12190-3 0 9992 2 09057 102.2834 332.0192 0009906 312.6869 101.1363 12.37825419232040 TIROS N 1 11060U 78096A 25351.82430769 .00000178 00000+0 10473-3 0 9996 2 11060 98.4701 15.9564 0011234 52.5179 307.7018 14.19294119653022 NOAA 6 1 11416U 79057A 25351.92456023 .00000294 00000+0 11779-3 0 9990 2 11416 98.5833 17.5469 0010932 77.6586 282.5822 14.35358231424955 NOAA 7 1 12553U 81059A 25351.79633301 .00000055 00000+0 48469-4 0 9991 2 12553 98.8219 55.4728 0012399 69.5648 290.6857 14.17753612299046 NOAA 8 1 13923U 83022A 25351.88517011 .00000133 00000+0 69371-4 0 9996 2 13923 98.7370 359.4266 0015776 70.5757 289.7128 14.29726160225167 NOAA 9 1 15427U 84123A 25351.67755257 .00000127 00000+0 86521-4 0 9992 2 15427 99.1148 8.9684 0015267 141.4010 328.3020 14.17004977117715 NOAA 10 1 16969U 86073A 25351.72061189 .00000122 00000+0 65609-4 0 9999 2 16969 98.6911 340.3339 0012295 162.1569 11.1493 14.29102307 43499 NOAA 11 1 19531U 88089A 25351.87919150 .00000044 00000+0 43838-4 0 9995 2 19531 98.5982 298.7351 0012174 97.5059 262.7499 14.15798324921822 NOAA 12 1 21263U 91032A 25351.90985213 .00000094 00000+0 56804-4 0 9991 2 21263 98.6051 338.2468 0013316 193.5282 166.5543 14.26685013799116 NOAA 13 1 22739U 93050A 25351.82799465 .00000086 00000+0 68468-4 0 9995 2 22739 98.6824 296.9138 0008483 290.1272 69.8987 14.13603750667754 NOAA 14 1 23455U 94089A 25351.91926802 .00000049 00000+0 46795-4 0 9999 2 23455 98.4888 325.0906 0008434 241.7063 118.3261 14.14633715597573 NOAA 15 1 25338U 98030A 25351.80734030 .00000133 00000+0 71921-4 0 9992 2 25338 98.5215 12.2147 0010751 153.7015 206.4714 14.27073023435427 NOAA 16 1 26536U 00055A 25351.86217086 .00000084 00000+0 65992-4 0 9992 2 26536 98.4743 10.6234 0011523 101.3138 258.9331 14.13870179598109 NOAA 17 1 27453U 02032A 25351.73147030 .00000156 00000+0 84194-4 0 9990 2 27453 98.8404 310.5701 0012028 152.9046 207.2764 14.26134539221127 NOAA 18 1 28654U 05018A 25351.86637496 .00000121 00000+0 87561-4 0 9998 2 28654 98.8291 69.0630 0013355 308.6505 51.3471 14.13684023 60696 NOAA 19 1 33591U 09005A 25351.83325026 .00000055 00000+0 53185-4 0 9995 2 33591 98.9763 57.4014 0013846 179.4691 180.6498 14.13437292868863 SUOMI NPP 1 37849U 11061A 25351.76865109 .00000067 00000+0 52888-4 0 9995 2 37849 98.7779 289.0650 0002382 111.4739 248.6691 14.19515647732709 NOAA 20 (JPSS-1) 1 43013U 17073A 25351.85391029 .00000072 00000+0 55151-4 0 9991 2 43013 98.7604 288.0948 0002140 79.7653 280.3764 14.19527110418745 NOAA 21 (JPSS-2) 1 54234U 22150A 25351.81851908 .00000046 00000+0 42797-4 0 9996 2 54234 98.7467 288.0635 0002006 28.0934 332.0350 14.19525664160812